Location: Launois
(49.6535°N, 4.5395°E)
Time: 01:55:46
(UTC+00:00)

Cosmos 1833 - Pass Details

Date: 23 May 2024
Orbit: 835 x 863 km, 70.9° (Epoch: 16 June)

Event Time Altitude Azimuth Distance (km) Brightness Sun altitude
Exits shadow 02:58:19 - 216° (SW) 2,644 6.1 -7.0°
Reaches altitude 10° 02:58:48 10° 216° (SW) 2,463 6.0 -6.9°
Maximum altitude 03:04:26 71° 301° (WNW) 890 4.3 -6.2°
Drops below altitude 10° 03:10:05 10° 26° (NNE) 2,463 7.9 -5.6°
Sets 03:12:33 0° 29° (NNE) 3,399 8.9 -5.3°
